map of KUO home
Great Circle Mapper logo
KUO - Airport
Location
City:  Kuopio, Finland
ICAO / IATA:EFKU / KUO

Details
Type:Airport (Aerodrome, Airfield)
Use:Public/Civil
Latitude:6300'26"N (63.007150)
Longitude:2747'52"E (27.797756)
Datum:WGS 1984
Elevation:323 ft (98 m)
Runways:2
Longest:9186 × 197 ft (2800 × 60 m), paved

Time
Time Zone:UTC+2 (DST+3)
Local Time:

Weather
METAR:EFKU 311120Z 31007KT 9999 FEW013 BKN095 02/00 Q1019
TAF:EFKU 311137Z 3112/0112 31007KT 9999 FEW013 PROB40 3118/3124 BKN007

Related Locations
Nearby:
Farthest:NZWD: 11088 mi / 17844 km
McMurdo Station [Williams Field], Ross Island, AQ

Find:

   beyond  
but within

Other Information
Maps:
NOTAMs:
Links:
Sources:

  
flag of Finland   

Sectional Chart

Flight Planning
at skyvector.com

Satellite Image

Google Maps Satellite View

 

Copyright © 2004-2014 Karl L. Swartz. All rights reserved.
The Great Circle Mapper name and logo are trademarks of the Great Circle Mapper.
All other trademarks mentioned herein belong to their respective owners.
Please see credits for attibutions and further copyright information.

  Follow gcmap on Facebook Follow gcmap on Twitter

hCard Microformat

Geo Microformat